• In Netherlands
  • List of Countries
  • For 7 days
  • Water Temperature
  • Satellite Maps
  • Weather Map
  • Weather Widgets
  • user-avatar
    Login

    Hourly Weather Barisal

    Today, 22 February, Wednesday

    Time Temperature Precipitation Wind Pressure Humidity
    00:00 +23°C° 0 mm 4 mps 757 mmHg 97%
    01:00 +23°C° 0 mm 4 mps 757 mmHg 97%
    02:00 +23°C° 0 mm 4 mps 757 mmHg 97%
    03:00 +23°C° 0 mm 4 mps 757 mmHg 97%
    04:00 +23°C° 0 mm 4 mps 757 mmHg 96%
    05:00 +23°C° 0 mm 4 mps 757 mmHg 95%
    06:00 +25°C° 0 mm 4 mps 757 mmHg 94%
    07:00 +26°C° 0 mm 5 mps 758 mmHg 86%
    08:00 +27°C° 0 mm 5 mps 758 mmHg 79%
    09:00 +28°C° 0 mm 6 mps 759 mmHg 72%
    10:00 +30°C° 0 mm 6 mps 759 mmHg 64%
    11:00 +33°C° 0 mm 6 mps 759 mmHg 55%
    12:00 +35°C° 0 mm 6 mps 759 mmHg 47%
    13:00 +35°C° 0 mm 6 mps 758 mmHg 47%
    14:00 +35°C° 0 mm 6 mps 757 mmHg 46%
    15:00 +35°C° 0 mm 6 mps 757 mmHg 46%
    16:00 +33°C° 0 mm 6 mps 757 mmHg 53%
    17:00 +30°C° 0 mm 6 mps 757 mmHg 61%
    18:00 +28°C° 0 mm 6 mps 757 mmHg 69%
    19:00 +27°C° 0 mm 5 mps 757 mmHg 75%
    20:00 +26°C° 0 mm 5 mps 758 mmHg 82%
    21:00 +25°C° 0 mm 4 mps 758 mmHg 88%
    22:00 +25°C° 0 mm 4 mps 758 mmHg 90%
    23:00 +25°C° 0 mm 4 mps 758 mmHg 92%

    Tomorrow, 23 February, Thursday

    Time Temperature Precipitation Wind Pressure Humidity
    00:00 +25°C° 0 mm 4 mps 758 mmHg 94%
    01:00 +23°C° 0 mm 4 mps 758 mmHg 95%
    02:00 +24°C° 0 mm 3 mps 757 mmHg 96%
    03:00 +24°C° 0 mm 2 mps 757 mmHg 97%
    04:00 +24°C° 0 mm 2 mps 757 mmHg 96%
    05:00 +25°C° 0 mm 2 mps 757 mmHg 94%
    06:00 +25°C° 0 mm 2 mps 758 mmHg 92%
    07:00 +26°C° 0 mm 2 mps 758 mmHg 87%
    08:00 +27°C° 0 mm 3 mps 759 mmHg 81%
    09:00 +28°C° 0 mm 3 mps 759 mmHg 76%
    10:00 +28°C° 0 mm 4 mps 759 mmHg 72%
    11:00 +29°C° 0 mm 4 mps 759 mmHg 69%
    12:00 +29°C° 0 mm 4 mps 759 mmHg 65%
    13:00 +29°C° 0 mm 4 mps 759 mmHg 65%
    14:00 +29°C° 0 mm 4 mps 758 mmHg 65%
    15:00 +29°C° 0 mm 4 mps 757 mmHg 66%
    16:00 +29°C° 0 mm 3 mps 757 mmHg 68%
    17:00 +28°C° 0 mm 3 mps 757 mmHg 70%
    18:00 +28°C° 0 mm 3 mps 757 mmHg 72%
    19:00 +27°C° 0 mm 3 mps 758 mmHg 79%
    20:00 +26°C° 0 mm 3 mps 758 mmHg 85%
    21:00 +25°C° 0 mm 3 mps 759 mmHg 92%
    22:00 +24°C° 0 mm 3 mps 759 mmHg 94%
    23:00 +24°C° 0 mm 3 mps 759 mmHg 95%

    Day after tomorrow, 24 February, Friday

    Time Temperature Precipitation Wind Pressure Humidity
    00:00 +24°C° 0 mm 3 mps 759 mmHg 97%
    01:00 +23°C° 0 mm 2 mps 758 mmHg 97%
    02:00 +23°C° 0 mm 2 mps 758 mmHg 97%
    03:00 +23°C° 0 mm 2 mps 758 mmHg 98%
    04:00 +23°C° 0.1 mm 2 mps 758 mmHg 98%
    05:00 +21°C° 0.1 mm 2 mps 758 mmHg 98%
    06:00 +22°C° 0.1 mm 1 mps 759 mmHg 98%
    07:00 +24°C° 0 mm 1 mps 759 mmHg 85%
    08:00 +26°C° 0 mm 1 mps 760 mmHg 73%
    09:00 +26°C° 0 mm 0 mps 761 mmHg 60%
    10:00 +30°C° 0 mm 1 mps 760 mmHg 47%
    11:00 +32°C° 0 mm 1 mps 760 mmHg 33%
    12:00 +35°C° 0 mm 2 mps 760 mmHg 20%
    13:00 +36°C° 0 mm 2 mps 759 mmHg 18%
    14:00 +36°C° 0 mm 3 mps 758 mmHg 15%
    15:00 +37°C° 0 mm 4 mps 757 mmHg 13%
    16:00 +34°C° 0 mm 3 mps 757 mmHg 19%
    17:00 +31°C° 0 mm 3 mps 757 mmHg 25%
    18:00 +28°C° 0 mm 3 mps 757 mmHg 31%
    19:00 +27°C° 0 mm 3 mps 758 mmHg 40%
    20:00 +26°C° 0 mm 2 mps 759 mmHg 48%
    21:00 +24°C° 0 mm 2 mps 759 mmHg 57%
    22:00 +24°C° 0 mm 2 mps 759 mmHg 64%
    23:00 +23°C° 0 mm 2 mps 759 mmHg 72%

    25 February, Saturday

    Time Temperature Precipitation Wind Pressure Humidity
    00:00 +21°C° 0 mm 2 mps 759 mmHg 79%
    01:00 +21°C° 0 mm 2 mps 759 mmHg 77%
    02:00 +21°C° 0 mm 3 mps 758 mmHg 76%
    03:00 +20°C° 0 mm 3 mps 758 mmHg 74%
    04:00 +20°C° 0 mm 3 mps 758 mmHg 69%
    05:00 +19°C° 0 mm 2 mps 758 mmHg 64%
    06:00 +18°C° 0 mm 2 mps 759 mmHg 59%
    07:00 +21°C° 0 mm 2 mps 759 mmHg 48%
    08:00 +25°C° 0 mm 2 mps 760 mmHg 36%
    09:00 +28°C° 0 mm 1 mps 761 mmHg 25%
    10:00 +30°C° 0 mm 1 mps 760 mmHg 20%
    11:00 +32°C° 0 mm 1 mps 760 mmHg 15%
    12:00 +35°C° 0 mm 2 mps 760 mmHg 10%
    13:00 +36°C° 0 mm 2 mps 759 mmHg 9%
    14:00 +36°C° 0 mm 3 mps 758 mmHg 9%
    15:00 +37°C° 0 mm 4 mps 757 mmHg 8%
    16:00 +34°C° 0 mm 3 mps 757 mmHg 12%
    17:00 +30°C° 0 mm 3 mps 757 mmHg 16%
    18:00 +28°C° 0 mm 3 mps 757 mmHg 20%
    19:00 +26°C° 0 mm 3 mps 758 mmHg 24%
    20:00 +25°C° 0 mm 2 mps 758 mmHg 29%
    21:00 +23°C° 0 mm 2 mps 758 mmHg 33%
    22:00 +21°C° 0 mm 2 mps 758 mmHg 36%
    23:00 +21°C° 0 mm 2 mps 758 mmHg 39%

    26 February, Sunday

    Time Temperature Precipitation Wind Pressure Humidity
    00:00 +20°C° 0 mm 2 mps 758 mmHg 42%
    01:00 +20°C° 0 mm 2 mps 757 mmHg 43%
    02:00 +20°C° 0 mm 2 mps 757 mmHg 45%
    03:00 +19°C° 0 mm 2 mps 757 mmHg 46%
    04:00 +19°C° 0 mm 2 mps 757 mmHg 52%
    05:00 +19°C° 0 mm 2 mps 757 mmHg 57%
    06:00 +18°C° 0 mm 2 mps 758 mmHg 62%
    07:00 +21°C° 0 mm 2 mps 758 mmHg 58%
    08:00 +24°C° 0 mm 2 mps 759 mmHg 53%
    09:00 +27°C° 0 mm 2 mps 760 mmHg 49%
    10:00 +30°C° 0 mm 2 mps 759 mmHg 39%
    11:00 +32°C° 0 mm 2 mps 759 mmHg 30%
    12:00 +35°C° 0 mm 2 mps 759 mmHg 21%
    13:00 +36°C° 0 mm 3 mps 758 mmHg 19%
    14:00 +37°C° 0 mm 3 mps 757 mmHg 18%
    15:00 +38°C° 0 mm 4 mps 756 mmHg 16%
    16:00 +35°C° 0 mm 4 mps 756 mmHg 20%
    17:00 +31°C° 0 mm 3 mps 757 mmHg 25%
    18:00 +29°C° 0 mm 3 mps 757 mmHg 29%
    19:00 +27°C° 0 mm 3 mps 757 mmHg 38%
    20:00 +25°C° 0 mm 3 mps 758 mmHg 47%
    21:00 +24°C° 0 mm 3 mps 758 mmHg 57%
    22:00 +22°C° 0 mm 3 mps 758 mmHg 64%
    23:00 +22°C° 0 mm 3 mps 758 mmHg 72%

    27 February, Monday

    Time Temperature Precipitation Wind Pressure Humidity
    00:00 +21°C° 0 mm 3 mps 758 mmHg 80%
    01:00 +21°C° 0 mm 3 mps 758 mmHg 81%
    02:00 +21°C° 0 mm 3 mps 757 mmHg 82%
    03:00 +21°C° 0 mm 3 mps 757 mmHg 83%
    04:00 +20°C° 0 mm 3 mps 758 mmHg 84%
    05:00 +20°C° 0 mm 3 mps 758 mmHg 85%
    06:00 +19°C° 0 mm 3 mps 758 mmHg 86%
    07:00 +22°C° 0 mm 3 mps 759 mmHg 73%
    08:00 +26°C° 0 mm 3 mps 759 mmHg 60%
    09:00 +28°C° 0 mm 3 mps 760 mmHg 47%
    10:00 +31°C° 0 mm 3 mps 760 mmHg 37%
    11:00 +34°C° 0 mm 3 mps 760 mmHg 26%
    12:00 +37°C° 0 mm 3 mps 759 mmHg 15%
    13:00 +37°C° 0 mm 3 mps 759 mmHg 14%
    14:00 +38°C° 0 mm 4 mps 758 mmHg 13%
    15:00 +38°C° 0 mm 4 mps 757 mmHg 12%
    16:00 +36°C° 0 mm 4 mps 757 mmHg 16%
    17:00 +33°C° 0 mm 3 mps 757 mmHg 20%
    18:00 +29°C° 0 mm 3 mps 757 mmHg 24%
    19:00 +28°C° 0 mm 2 mps 758 mmHg 28%
    20:00 +26°C° 0 mm 2 mps 758 mmHg 32%
    21:00 +25°C° 0 mm 2 mps 758 mmHg 37%
    22:00 +24°C° 0 mm 2 mps 758 mmHg 42%
    23:00 +24°C° 0 mm 2 mps 758 mmHg 46%
    Show more